Regional Weather Roundup
Issued by NWS Charleston, SC

Current Version | Previous Version | Graphics & Text | Print | Product List | Glossary On
Versions: 1 2 3 4 5 6 7 8 9 10 11 12 13 14 15 16 17 18 19 20 21 22 23 24 25 26 27 28 29 30 31 32 33 34 35 36 37 38 39 40 41 42 43 44 45 46 47 48 49 50
000
ASUS42 KCHS 201112
RWRCHS

REGIONAL WEATHER ROUNDUP
NATIONAL WEATHER SERVICE CHARLESTON SC
700 AM EDT SUN AUG 20 2017

NOTE: "FAIR" INDICATES FEW OR NO CLOUDS BELOW 12,000 FEET WITH NO
SIGNIFICANT WEATHER AND/OR OBSTRUCTIONS TO VISIBILITY.

NOT ALL STATIONS ARE QUALITY CONTROLLED. USE DATA WITH CAUTION...
ESPECIALLY DEWPOINT OBSERVATIONS.

SCZ027-030-031-034>040-042>050-201200-
...SOUTHEAST SOUTH CAROLINA...

CITY           SKY/WX    TMP DP  RH WIND       PRES   REMARKS
N CHARLESTON   CLOUDY    80  79  96 CALM      30.03R
WATERFRONT PRK   N/A     83  80  90 CALM      29.86R HX  96
JOHNS ISLAND   FAIR      81  79  94 CALM      30.03R
PINOPOLIS        N/A     79  79 100 CALM      29.95R
MONCKS CORNER  FOG       75  73  94 CALM      30.03R VSB 1/2
SUMMERVILLE    CLOUDY    75  73  94 CALM      30.04R FOG
BEAUFORT MCAS  PTCLDY    79  79 100 CALM      30.03R
BEAUFORT ARPT  FAIR      79  77  94 CALM      30.02R
HILTON HEAD IS PTCLDY    79  77  94 CALM      30.03R
WALTERBORO     FOG       73  73 100 CALM      30.04R VSB 1/4
ALLENDALE      NOT AVBL

...SOUTHERN MIDLANDS AND PEE DEE...

CITY           SKY/WX    TMP DP  RH WIND       PRES   REMARKS
GEORGETOWN     FAIR      77  77 100 CALM      30.04R
KINGSTREE      FOG       72  72 100 CALM      30.03R VSB 1/2
ORANGEBURG     CLEAR     72  70  93 CALM      30.03R
BARNWELL       FAIR      72  70  94 CALM      30.03R
AIKEN          FAIR      70  68  94 CALM      30.08R
MANNING        FAIR      73  73 100 MISG      30.03R
COLUMBIA       PTCLDY    76  71  85 CALM      30.03R
SUMTER         CLEAR     73  68  84 CALM      30.01R
FLORENCE       CLEAR     74  74 100 CALM      30.04R FOG
MYRTLE BEACH   PTCLDY    81  79  94 SW6       30.04R
N MYRTLE BEACH PTCLDY    80  79  96 W3        30.03R

$$

GAZ063-065-086>088-099>101-113>116-118-119-134>141-150-201200-
...SOUTHEAST GEORGIA...

CITY           SKY/WX    TMP DP  RH WIND       PRES   REMARKS
SAVANNAH ARPT  PTCLDY    79  75  87 SE5       30.03R
HUNTER AAF     LGT RAIN  79  75  88 W3        30.00R
FORT STEWART   CLEAR     76  73  91 CALM      30.00R
STATESBORO     CLEAR     73  73 100 CALM      30.03R
SYLVANIA       SUNNY     72  72 100 CALM      30.03R
CLAXTON        FAIR      73  72  98 CALM      30.02R FOG

...CSRA...CENTRAL AND FAR SOUTHEAST GEORGIA...

CITY           SKY/WX    TMP DP  RH WIND       PRES   REMARKS
THOMSON        CLEAR     70  68  93 CALM      30.10R
AUGUSTA-BUSH   CLEAR     72  69  90 CALM      30.03R FOG
AUGUSTA-DANIEL CLEAR     76  68  76 CALM      30.05R
SWAINSBORO     FAIR      70  70 100 CALM      30.04R
VIDALIA        CLEAR     73  70  88 CALM      30.03R
EASTMAN        FAIR      70  70 100 CALM      30.06R FOG
HAZLEHURST     FAIR      73  70  88 CALM      30.02R
ALMA           FOG       73  71  93 CALM      30.02R VSB 1
WAYCROSS       CLEAR     75  72  90 CALM      30.02R
JESUP          FAIR      75  72  88 CALM      30.03R
BAXLEY         NOT AVBL
BRUNSWICK      CLEAR     73  72  94 CALM      30.03R
SAINT SIMONS   CLEAR     79  75  87 S5        30.01R

$$

SCZ027-028-034-036>038-045-046-048>050-GAZ119-141-201200-
...LAKE AND SUPPLEMENTAL COASTAL OBSERVATIONS...

STATION/POSITION TIME  TEMP    WIND        PRES    WAVE   SWELL
                       AIR SEA DIR/SP/G            HT/PER HT/PER/DIR
                 (UTC) (F)     (DEG/KT/KT) (MB)    (FT/S) (FT/S/D)
WINYAH BAY       0945   80     230/  2     1016.0
LAKE MURRAY      1020   76      CALM  /  3 1015.9
ACE BASIN NERRS  0945   79        CALM     1016.0
FORT PULASKI     1036   82 87  240/  2/  3 1016.7R
SAPELO ISLAND    1000   79     190/  3     1016.0

$$

ANZ835-935-AMZ111-154-330-350-352-354-370-450-454-472-201200-
...C-MAN AND BUOY OBSERVATIONS...

STATION/POSITION TIME  TEMP    WIND        PRES    WAVE   SWELL
                       AIR SEA DIR/SP/G            HT/PER HT/PER/DIR
                 (UTC) (F)     (DEG/KT/KT) (MB)    (FT/S) (FT/S/D)
BUOY 41004       1050   84 84  230/ 10/ 12 1016.3R   3/ 9   2/130/ 9
BUOY 41008       1050   84 85  200/ 12/ 16 1015.9R   3/ 8   2/ 90/ 8
FOLLY BEACH CMAN 1000   84     210/  8/  9 1016.8R
CAPERS NEARSHORE 1008   82 86  220/ 10/ 14 1015.9R
FRIPP NEARSHORE  1008   81     150/  8/ 12 1015.7R


STATION/POSITION TIME  TEMP    WIND        PRES    WAVE   SWELL
                       AIR SEA DIR/SP/G            HT/PER HT/PER/DIR
                 (UTC) (F)     (DEG/KT/KT) (MB)    (FT/S) (FT/S/D)
5E ST. MARYS GA  1030      84                N/A     3/ 8
FRYING PAN BUOY  1050   84 84  240/ 10/ 12 1016.8R   3/ 9   2/130/ 9
BUOY 41025       1050   79 82  290/ 12/ 14 1017.0R   3/ 9   3/150/ 9
CAPE LOOKOUT NC  1000   75     220/  5/  7 1016.3R
BUOY 41002       1050   82 84  220/  6/  8 1018.7R   3/10   3/120/10
BUOY 41010       1050   84 85  140/ 10/ 12 1016.4R   3/ 8   3/110/ 8
ST AUGUSTINE FL  1100   79 81  230/  3/  4 1016.7R


$$



USA.gov is the U.S. government's official web portal to all federal, state and local government web resources and services.